Location: *
(48.8667°N, 2.3331°E)
Time: 17:07:48
(UTC+00:00)

Cosmos 2151 - Pass Details

Date: 09 April 2020
Orbit: 582 x 600 km, 82.5° (Epoch: 03 June)

Event Time Altitude Azimuth Distance (km) Brightness Sun altitude
Rises 21:01:06 0° 351° (N) 2,819 7.3 -21.9°
Reaches altitude 10° 21:03:19 10° 353° (N) 1,914 6.2 -22.2°
Maximum altitude 21:07:32 76° 79° (E) 607 2.8 -22.7°
Enters shadow 21:07:33 76° 83° (E) 607 2.8 -22.7°
